星链-34221 (STARLINK-34221)

导读

STARLINK-34221是美国SpaceX星链星座旗下卫星,于2025年6月18日发射。星链是美国搭建的低轨卫星互联网星座,该卫星延续了星链星座为全球提供高速互联网接入服务的定位,服务范围覆盖偏远地区、海洋空域等,助力卫星互联网全球覆盖,进一步扩充了星链星座在轨规模。

Basic Information
目录编号:
64453
目录名称:
STARLINK-34221
国际标识:
2025-130R
轨道中心:
EARTH
卫星名称:
星链-34221
卫星全名:
星链-34221 (STARLINK-34221)
卫星状态:
在轨 (已飞行443 天)
发射日期:
2025-06-18 UTC
国别 :
美国 (US)
星等 :
--
Orbit Information
数据来源 国际轨道数据
星历时间: 2026-09-04T04:27:47+0800
9小时前
查看轨道信息
半长轴: 6840.861km
偏心率: 0.0001306
轨道倾角: 53.161°
近地点辐角 83.229°
升交点赤经 337.231°
平近点角 276.886°
近地点: 461.83km
远地点: 463.618km
周期: 93.848分钟
每日圈数: 15.343931
Detailed Information
固有亮度:
5
最大亮度:
2.5
卫星平台:
Starlink V1.0
覆盖范围:
全球
运营商:
太空探索技术公司
运营商所在国:
美国
制造商(研发单位):
太空探索技术公司
制造商所在国:
美国
使用方式:
暂无
Satellite Introduction
Starlink 计划是 SpaceX 推出的全球卫星互联网项目,通过发射低轨道卫星,为全球尤其是偏远地区提供高速、低延迟的互联网服务。自 2019 年起,Starlink 已部署数千颗卫星,旨在缩小全球数字鸿沟,推动互联网普及。该项目还为军事、航空等行业提供通信支持,带来广泛经济效益。
2D Orbit Map
3D Orbit Map
Orbit Altitude Analysis Chart
Orbit Inclination Analysis Chart
Orbit Comprehensive Analysis Chart
View Comprehensive Chart
Conjunction Data List
Event ID Objects TCA Miss Dist (km) Collision Risk Probability Collision Risk Index (CRI) Action
CDM_260904-185006-445306-984421
2026-09-04T
18:50:16+0000
0.288 km
中距离
3.954481E-4 高风险 0.87
CDM_260905-005206-154806-445321
2026-09-05T
00:52:58+0000
0.404 km
远距离
2.184374E-4 高风险 0.82
CDM_260905-025306-445306-666721
2026-09-05T
02:53:31+0000
0.725 km
远距离
4.109327E-5 中风险 0.67
CDM_260905-045906-445306-984421
2026-09-05T
04:59:54+0000
1.366 km
极远距离
5.592918E-6 低风险 0.5
CDM_260904-161706-154806-445321
2026-09-04T
16:17:06+0000
1.424 km
极远距离
4.939349E-6 低风险 0.49
CDM_260905-063306-445306-984421
2026-09-05T
06:33:41+0000
1.855 km
极远距离
2.209358E-6 低风险 0.42
CDM_260904-144306-154806-445321
2026-09-04T
14:43:19+0000
1.946 km
极远距离
1.973639E-6 低风险 0.41
CDM_260904-202406-445306-984421
2026-09-04T
20:24:03+0000
2.329 km
极远距离
1.3094E-6 低风险 0.37
CDM_260902-225105-420906-445323
2026-09-02T
22:51:08+0000
2.576 km
极远距离
1.146451E-6 低风险 0.36
CDM_260903-052105-269806-445321
2026-09-03T
05:21:00+0000
2.691 km
极远距离
1.127637E-6 低风险 0.36